WY1U-1 Weather Reports


time (UTC)temp
C
wind
direction
speed
KPH
gust
KPH
rain 1hr
cm
rain 24hr
cm
rain mn
cm
humidity
%
barometer
mb
20260507070149 11 349 0.0 3.2 0.13 0.38 0.13 95 1008.9
20260507063149 11 355 3.2 6.4 0.03 0.28 0.03 93 1008.5
20260507060149 11 6 1.6 6.4 0.00 0.23 0.00 91 1008.3
20260507050150 12 13 4.8 6.4 0.00 0.23 0.00 91 1008.7
20260507040150 12 0 0.0 0.0 0.00 0.23 0.00 95 1008.5
20260507030150 14 7 4.8 8.0 0.00 0.23 0.23 96 1008.6
20260507020155 14 183 0.0 0.0 0.00 0.23 0.23 96 1008.1
20260507000150 14 198 0.0 3.2 0.00 0.23 0.23 96 1007.9
20260506230150 14 207 1.6 4.8 0.00 0.23 0.23 96 1007.5
20260506220150 14 205 1.6 8.0 0.00 0.23 0.23 95 1007.4
20260506210150 15 205 3.2 9.7 0.03 0.23 0.23 95 1007.3
20260506200150 15 209 3.2 9.7 0.00 0.20 0.20 95 1007.8
20260506190153 15 197 4.8 12.9 0.10 0.20 0.20 95 1008.3
20260506180150 15 199 6.4 16.1 0.08 0.08 0.08 93 1008.4
20260506170150 15 210 6.4 16.1 0.00 0.00 0.00 87 1009.8
20260506160150 17 194 8.0 27.4 0.00 0.00 0.00 75 1010.2
20260506150150 17 211 8.0 19.3 0.00 0.00 0.00 75 1010.2
20260506130150 17 198 4.8 16.1 0.00 0.00 0.00 79 1010.4
20260506120150 15 218 4.8 12.9 0.00 0.00 0.00 86 1010.9
20260506110150 14 218 4.8 11.3 0.00 0.00 0.00 90 1011.0
20260506100150 13 202 3.2 9.7 0.00 0.00 0.00 91 1010.8
20260506080150 14 204 4.8 11.3 0.00 0.00 0.00 87 1011.0